User: anonymous
Location: Bakersfield
(35.3730°N, 119.0180°W)
Time: 19:20:04
(UTC-07:00)
Language:

Cosmos 1222 Rocket - Orbit

View from above orbital plane
View from above orbital plane
View from above satellite
View from above satellite

Ground track
Ground track

The orbit data is extracted from the following two-line orbital elements,

1 12072U 80093B   14245.49144129  .00025716  00000-0  31995-3 0  2031
2 12072 081.1847 231.2943 0014668 089.1256 271.1676 15.59664762858140
Epoch (UTC): 02 September 2014 11:47:40
Eccentricity: 0.0014668
inclination: 81.1847°
perigee height: 379 km
apogee height: 398 km
right ascension of ascending node: 231.2943°
argument of perigee: 89.1256°
revolutions per day: 15.59664762
mean anomaly at epoch: 271.1676°
orbit number at epoch: 85814

The dashed part of the orbit path shows where the satellite is in the earth's shadow,  

DLR